Weather History for Dayton, OH

Change the Weather History Date:

Monday, March 25, 2013

  Actual Average Record
Temperature  
Mean Temperature 31 °F 44 °F  
Max Temperature 33 °F 53 °F 84 °F (1929)
Min Temperature 28 °F 34 °F 1 °F (1974)
Degree Days  
Heating Degree Days 34 21  
Month to date heating degree days 767 644  
Since 1 July heating degree days 4817 4919  
Cooling Degree Days 0 0  
Month to date cooling degree days 0 0  
Year to date cooling degree days 0 0  
Moisture  
Dew Point 29 °F    
Average Humidity 91    
Maximum Humidity 100    
Minimum Humidity 82    
Precipitation  
Precipitation 0.15 in 0.12 in 2.27 in (1913)
Month to date precipitation 3.11 2.59  
Year to date precipitation 7.50 7.54  
Snow  
Snow 2.10 in 0.00 in 3.90 in (1955)
Month to date snowfall 13.8 3.0  
Since 1 July snowfall 35.5 22.3  
Snow Depth 5.00 in    
Sea Level Pressure  
Sea Level Pressure 29.64 in    
Wind  
Wind Speed 13 mph (NNW)    
Max Wind Speed 22 mph    
Max Gust Speed 28 mph    
Visibility 2 miles    
Events Fog , Snow    
T = Trace of Precipitation, MM = Missing Value Source: NWS Daily Summary

Daily Weather History Graph

Daily Weather History Graph

Search for Another Location

Airport:

Trip Planner

Search our weather history database for the weather conditions in past years. The results will help you decide how hot, cold, wet, or windy it might be!

Date:

Astronomy

Mar. 25, 2013 Rise Set
Actual Time 7:31 AM EDT 7:54 PM EDT
Civil Twilight 7:04 AM EDT 8:21 PM EDT
Nautical Twilight 6:32 AM EDT 8:53 PM EDT
Astronomical Twilight 6:00 AM EDT 9:25 PM EDT
Moon 6:25 PM EDT (3/25) 6:14 AM EDT (3/25)
Length of Visible Light 13h 16m
Length of Day
12h 22m
Waxing Gibbous, 96% of the Moon is Illuminated
Mar 25
Waxing Gibbous
Mar 27
Full
Apr 3
Last Quarter
Apr 10
New
Apr 18
First Quarter

Hourly Weather History & Observations

Time (EDT) Temp. Windchill Dew Point Humidity Pressure Visibility Wind Dir Wind Speed Gust Speed Precip Events Conditions
12:04 AM 28.4 °F 18.0 °F 28.4 °F 100% 29.45 in 0.8 mi NNE 12.7 mph - 0.00 in Snow Light Snow
12:43 AM 28.4 °F 18.5 °F 28.4 °F 100% 29.44 in 0.8 mi NNE 11.5 mph - 0.02 in Snow Light Snow
12:56 AM 28.9 °F 19.8 °F 28.0 °F 96% 29.47 in 0.8 mi NNE 10.4 mph - 0.02 in Snow Light Snow
1:05 AM 28.4 °F 18.5 °F 28.4 °F 100% 29.44 in 0.8 mi NNE 11.5 mph - 0.00 in Snow Light Snow
1:47 AM 28.4 °F 19.7 °F 28.4 °F 100% 29.44 in 0.8 mi North 9.2 mph - 0.01 in Snow Light Snow
1:56 AM 28.0 °F 20.0 °F 27.0 °F 96% 29.46 in 0.8 mi North 8.1 mph - 0.02 in Snow Light Snow
2:10 AM 28.4 °F 20.4 °F 28.4 °F 100% 29.44 in 0.8 mi North 8.1 mph - 0.01 in Snow Light Snow
2:35 AM 28.4 °F 19.7 °F 26.6 °F 93% 29.44 in 0.8 mi North 9.2 mph - 0.01 in Snow Light Snow
2:56 AM 28.9 °F 21.9 °F 28.0 °F 96% 29.47 in 0.8 mi North 6.9 mph - 0.01 in Snow Light Snow
3:13 AM 28.4 °F 20.4 °F 28.4 °F 100% 29.44 in 2.0 mi North 8.1 mph - 0.00 in Snow Light Snow
3:56 AM 28.9 °F 20.4 °F 28.0 °F 96% 29.45 in 2.0 mi North 9.2 mph - 0.00 in Snow Light Snow
4:18 AM 28.4 °F 20.4 °F 28.4 °F 100% 29.42 in 2.5 mi North 8.1 mph - 0.00 in   Overcast
4:20 AM 28.4 °F 20.4 °F 28.4 °F 100% 29.42 in 3.0 mi North 8.1 mph - 0.00 in   Overcast
4:56 AM 28.9 °F 23.9 °F 28.0 °F 96% 29.45 in 6.0 mi NNW 4.6 mph - 0.00 in   Overcast
5:26 AM 28.4 °F 22.2 °F 28.4 °F 100% 29.43 in 6.0 mi NNW 5.8 mph - 0.00 in Snow Light Snow
5:56 AM 28.9 °F 21.9 °F 28.0 °F 96% 29.45 in 6.0 mi WNW 6.9 mph - 0.00 in Snow Light Snow
6:04 AM 28.4 °F 21.2 °F 28.4 °F 100% 29.42 in 5.0 mi WNW 6.9 mph - 0.00 in Snow Light Snow
6:56 AM 28.9 °F 21.1 °F 28.0 °F 96% 29.47 in 8.0 mi WNW 8.1 mph - 0.00 in   Overcast
7:56 AM 28.9 °F 19.2 °F 28.0 °F 96% 29.49 in 1.5 mi WNW 11.5 mph - 0.01 in Snow Light Snow
8:09 AM 28.4 °F 19.1 °F 26.6 °F 93% 29.46 in 0.5 mi WNW 10.4 mph - 0.00 in Fog , Snow Snow
8:31 AM 28.4 °F 18.5 °F 28.4 °F 100% 29.47 in 0.5 mi WNW 11.5 mph - 0.01 in Fog , Snow Snow
8:56 AM 28.9 °F 18.6 °F 27.0 °F 92% 29.51 in 0.5 mi WNW 12.7 mph - 0.02 in Fog , Snow Light Snow
9:19 AM 28.4 °F 17.5 °F 28.4 °F 100% 29.49 in 1.0 mi WNW 13.8 mph - 0.00 in Snow Light Snow
9:56 AM 28.9 °F 17.7 °F 28.0 °F 96% 29.52 in 1.2 mi NW 15.0 mph - 0.00 in Snow Light Snow
10:23 AM 30.2 °F 19.8 °F 28.4 °F 93% 29.51 in 1.0 mi NW 13.8 mph - 0.01 in Snow Light Snow
10:56 AM 30.0 °F 19.5 °F 28.0 °F 92% 29.55 in 1.5 mi NW 13.8 mph - 0.01 in Snow Light Snow
11:36 AM 30.2 °F 18.1 °F 28.4 °F 93% 29.55 in 0.8 mi NW 18.4 mph - 0.00 in Snow Light Snow
11:56 AM 32.0 °F 20.8 °F 28.0 °F 85% 29.59 in 0.8 mi NNW 17.3 mph 24.2 mph 0.01 in Snow Light Snow
12:13 PM 32.0 °F 21.2 °F 28.4 °F 87% 29.56 in 1.0 mi NNW 16.1 mph - 0.00 in Snow Light Snow
12:22 PM 32.0 °F 20.8 °F 28.4 °F 87% 29.57 in 0.8 mi NNW 17.3 mph - 0.00 in Snow Light Snow
12:34 PM 32.0 °F 21.2 °F 28.4 °F 87% 29.57 in 1.0 mi NNW 16.1 mph - 0.00 in Snow Light Snow
12:47 PM 32.0 °F 20.5 °F 28.4 °F 87% 29.59 in 1.5 mi NNW 18.4 mph - 0.00 in Snow Light Snow
12:56 PM 32.0 °F 20.5 °F 28.9 °F 88% 29.62 in 1.0 mi NNW 18.4 mph - 0.00 in Snow Light Snow
1:18 PM 32.0 °F 20.5 °F 28.4 °F 87% 29.60 in 2.5 mi NNW 18.4 mph - 0.00 in Snow Light Snow
1:56 PM 32.0 °F 20.1 °F 28.9 °F 88% 29.64 in 2.0 mi NNW 19.6 mph 26.5 mph 0.00 in Snow Light Snow
2:07 PM 32.0 °F 20.5 °F 28.4 °F 87% 29.62 in 1.5 mi NNW 18.4 mph 26.5 mph 0.00 in Snow Light Snow
2:56 PM 32.0 °F 20.5 °F 28.9 °F 88% 29.67 in 1.5 mi NNW 18.4 mph - 0.00 in Snow Light Snow
3:11 PM 32.0 °F 20.8 °F 28.4 °F 87% 29.65 in 2.0 mi NNW 17.3 mph - 0.00 in Snow Light Snow
3:27 PM 33.8 °F 22.5 °F 28.4 °F 81% 29.66 in 3.0 mi NNW 19.6 mph 25.3 mph 0.00 in Snow Light Snow
3:56 PM 32.0 °F 20.8 °F 28.9 °F 88% 29.70 in 2.5 mi NNW 17.3 mph 27.6 mph 0.00 in Snow Light Snow
4:13 PM 32.0 °F 21.2 °F 28.4 °F 87% 29.68 in 1.8 mi NNW 16.1 mph - 0.00 in Snow Light Snow
4:49 PM 33.8 °F 23.2 °F 28.4 °F 81% 29.71 in 2.0 mi NNW 17.3 mph 25.3 mph 0.00 in Snow Light Snow
4:56 PM 33.1 °F 21.9 °F 28.9 °F 85% 29.75 in 3.0 mi NNW 18.4 mph 24.2 mph 0.00 in Snow Light Snow
5:12 PM 33.8 °F 23.2 °F 28.4 °F 81% 29.72 in 2.0 mi NNW 17.3 mph 23.0 mph 0.00 in Snow Light Snow
5:32 PM 33.8 °F 23.5 °F 30.2 °F 87% 29.73 in 2.0 mi NNW 16.1 mph - 0.00 in Snow Light Snow
5:51 PM 33.8 °F 23.9 °F 30.2 °F 87% 29.74 in 1.8 mi NNW 15.0 mph - 0.00 in Snow Light Snow
5:53 PM 33.8 °F 24.8 °F 30.2 °F 87% 29.74 in 1.5 mi NW 12.7 mph - 0.00 in Snow Light Snow
5:56 PM 33.1 °F 23.0 °F 30.0 °F 89% 29.77 in 1.2 mi NNW 15.0 mph - 0.00 in Snow Light Snow
6:14 PM 33.8 °F 24.3 °F 30.2 °F 87% 29.76 in 2.5 mi NW 13.8 mph - 0.00 in Snow Light Snow
6:37 PM 33.8 °F 24.3 °F 30.2 °F 87% 29.77 in 1.8 mi NW 13.8 mph - 0.00 in Snow Light Snow
6:56 PM 33.1 °F 23.9 °F 30.0 °F 89% 29.82 in 1.8 mi NW 12.7 mph - 0.00 in Snow Light Snow
7:03 PM 33.8 °F 24.3 °F 30.2 °F 87% 29.79 in 2.5 mi NNW 13.8 mph - 0.00 in Snow Light Snow
7:27 PM 33.8 °F 24.3 °F 30.2 °F 87% 29.81 in 3.0 mi NNW 13.8 mph - 0.00 in Snow Light Snow
7:39 PM 32.0 °F 23.0 °F 30.2 °F 93% 29.81 in 2.5 mi NW 11.5 mph - 0.00 in Snow Light Snow
7:56 PM 32.0 °F 23.0 °F 30.0 °F 92% 29.85 in 4.0 mi NW 11.5 mph - 0.00 in Snow Light Snow
8:18 PM 32.0 °F 22.1 °F 30.2 °F 93% 29.84 in 3.0 mi NW 13.8 mph - 0.00 in Snow Light Snow
8:22 PM 32.0 °F 23.0 °F 30.2 °F 93% 29.84 in 2.5 mi NW 11.5 mph - 0.00 in Snow Light Snow
8:38 PM 32.0 °F 23.6 °F 30.2 °F 93% 29.84 in 4.0 mi NW 10.4 mph - 0.00 in Snow Light Snow
8:49 PM 32.0 °F 23.0 °F 30.2 °F 93% 29.85 in 2.5 mi WNW 11.5 mph - 0.00 in Snow Light Snow
8:56 PM 32.0 °F 23.6 °F 30.0 °F 92% 29.89 in 2.0 mi NW 10.4 mph - 0.00 in Snow Light Snow
9:11 PM 32.0 °F 23.0 °F 30.2 °F 93% 29.86 in 4.0 mi NW 11.5 mph - 0.01 in Snow Light Snow
9:48 PM 32.0 °F 23.0 °F 30.2 °F 93% 29.88 in 2.5 mi NW 11.5 mph - 0.01 in Snow Light Snow
9:56 PM 32.0 °F 23.0 °F 30.0 °F 92% 29.91 in 2.5 mi NW 11.5 mph - 0.01 in Snow Light Snow
10:17 PM 32.0 °F 22.5 °F 30.2 °F 93% 29.89 in 4.0 mi NW 12.7 mph - 0.00 in Snow Light Snow
10:56 PM 30.9 °F 21.7 °F 30.0 °F 96% 29.94 in 4.0 mi NW 11.5 mph - 0.00 in Snow Light Snow
11:13 PM 30.2 °F 19.8 °F 30.2 °F 100% 29.90 in 2.5 mi NW 13.8 mph - 0.00 in Snow Light Snow
11:34 PM 30.2 °F 20.8 °F 30.2 °F 100% 29.91 in 4.0 mi NW 11.5 mph - 0.01 in Snow Light Snow
11:56 PM 30.9 °F 22.2 °F 30.0 °F 96% 29.94 in 3.0 mi NW 10.4 mph - 0.01 in Snow Light Snow